Location: Sudbury
(46.5221°N, 80.9530°W)
Time: 19:13:31
(UTC-05:00)

ISS - Visible Passes

Search period start: 18 November 2019 00:00
Search period end: 28 November 2019 00:00
Orbit: 412 x 421 km, 51.6° (Epoch: 19 November)

Date Brightness Start Highest point End Pass type
(mag) Time Alt. Az. Time Alt. Az. Time Alt. Az.
20 Nov -1.1 18:40:36 10° S 18:40:56 11° SSE 18:40:56 11° SSE visible
21 Nov -0.8 19:27:16 10° SW 19:27:48 14° SW 19:27:48 14° SW visible
22 Nov -2.6 18:39:10 10° SSW 18:41:38 32° SSE 18:41:38 32° SSE visible
23 Nov -2.2 17:51:19 10° S 17:53:58 22° SE 17:55:23 17° ESE visible
23 Nov -1.1 19:27:06 10° WSW 19:28:18 20° WSW 19:28:18 20° WSW visible
24 Nov -3.9 18:38:40 10° WSW 18:41:58 80° S 18:41:58 80° S visible
25 Nov -3.4 17:50:22 10° SW 17:53:38 52° SSE 17:55:34 22° ENE visible
25 Nov -1.1 19:27:14 10° W 19:28:28 20° WNW 19:28:28 20° WNW visible
26 Nov -3.4 18:38:38 10° W 18:41:56 54° NNW 18:42:00 53° NNW visible
27 Nov -3.7 17:50:05 10° WSW 17:53:26 74° NNW 17:55:30 22° ENE visible
27 Nov -0.9 19:27:24 10° WNW 19:28:24 17° WNW 19:28:24 17° WNW visible
